Location: Augustenthal
(51.7167°N, 10.2833°E)
Time: 10:05:40
(UTC+00:00)

Cosmos 1455 Rocket - Pass Details

Date: 03 October 2021
Orbit: 606 x 628 km, 82.5° (Epoch: 24 October)

Event Time Altitude Azimuth Distance (km) Brightness Sun altitude
Exits shadow 19:34:28 17° 25° (NNE) 1,585 5.1 -25.3°
Drops below altitude 10° 19:35:32 10° 20° (NNE) 1,994 5.7 -25.5°
Sets 19:37:50 0° 15° (NNE) 2,909 6.7 -25.8°
